RYR3628 LPPT-LEZL

Flight info

Callsign RYR3628
Flight time 0h 43m
Altitude 29000
Route DUZOP DCT MINTA N747 OSLEP
Aircraft B738/M-SDE2E3FGHIRWXY/LB1

Departure

Time 2026-04-17 12:37
Airport Lisbon Humberto Delgado Airport (LPPT)

Arrival

Time 2026-04-17 13:20
Airport Seville Airport (LEZL)
Time Latitude Longitude Altitude Speed Heading
2026-04-17 12:16 38.76461 -9.13735 355 ft 0 kts 167°
2026-04-17 12:30 38.76463 -9.13735 347 ft 2 kts 167°
2026-04-17 12:31 38.76479 -9.13740 355 ft 2 kts 171°
2026-04-17 12:31 38.76495 -9.13742 353 ft 2 kts 175°
2026-04-17 12:31 38.76512 -9.13743 354 ft 2 kts 185°
2026-04-17 12:31 38.76528 -9.13739 350 ft 2 kts 206°
2026-04-17 12:32 38.76540 -9.13725 356 ft 2 kts 244°
2026-04-17 12:32 38.76544 -9.13712 351 ft 1 kts 256°
2026-04-17 12:32 38.76544 -9.13711 351 ft 0 kts 257°
2026-04-17 12:33 38.76543 -9.13714 356 ft 2 kts 257°
2026-04-17 12:33 38.76536 -9.13756 352 ft 9 kts 258°
2026-04-17 12:34 38.76520 -9.13855 346 ft 12 kts 258°
2026-04-17 12:34 38.76548 -9.13937 346 ft 12 kts 344°
2026-04-17 12:34 38.76565 -9.14001 345 ft 8 kts 246°
2026-04-17 12:34 38.76527 -9.14058 351 ft 8 kts 227°
2026-04-17 12:35 38.76497 -9.14118 349 ft 8 kts 258°
2026-04-17 12:35 38.76507 -9.14212 337 ft 14 kts 292°
2026-04-17 12:35 38.76552 -9.14350 332 ft 18 kts 293°
2026-04-17 12:35 38.76656 -9.14382 334 ft 17 kts 22°
2026-04-17 12:37 38.82780 -9.10681 2374 ft 222 kts 30°
2026-04-17 12:37 38.84200 -9.09637 2672 ft 245 kts 31°
2026-04-17 12:38 38.85732 -9.08492 2950 ft 267 kts 31°
2026-04-17 12:38 38.87195 -9.06967 3504 ft 275 kts 55°
2026-04-17 12:38 38.87957 -9.04740 4318 ft 273 kts 81°
2026-04-17 12:38 38.88016 -9.02344 5220 ft 268 kts 102°
2026-04-17 12:39 38.87375 -9.00164 5992 ft 266 kts 123°
2026-04-17 12:39 38.86328 -8.98178 6814 ft 267 kts 135°
2026-04-17 12:39 38.84790 -8.96852 7431 ft 271 kts 163°
2026-04-17 12:39 38.82936 -8.96627 8152 ft 272 kts 187°
2026-04-17 12:40 38.81118 -8.97294 8929 ft 274 kts 201°
2026-04-17 12:40 38.79348 -8.98253 9662 ft 277 kts 202°
2026-04-17 12:40 38.77555 -8.99249 10285 ft 283 kts 202°
2026-04-17 12:40 38.76319 -8.99933 10475 ft 297 kts 202°
2026-04-17 12:41 38.74362 -9.01007 10634 ft 319 kts 202°
2026-04-17 12:41 38.72271 -9.02144 10938 ft 334 kts 202°
2026-04-17 12:41 38.70089 -9.03324 11539 ft 338 kts 202°
2026-04-17 12:41 38.67928 -9.04487 12272 ft 340 kts 202°
2026-04-17 12:42 38.65736 -9.05663 13002 ft 342 kts 203°
2026-04-17 12:42 38.63549 -9.06834 13712 ft 345 kts 203°
2026-04-17 12:42 38.61311 -9.08030 14395 ft 348 kts 203°
2026-04-17 12:42 38.59054 -9.09236 15083 ft 351 kts 202°
2026-04-17 12:43 38.56817 -9.10430 15831 ft 352 kts 202°
2026-04-17 12:43 38.54525 -9.11651 16497 ft 356 kts 202°
2026-04-17 12:43 38.52236 -9.12870 17123 ft 360 kts 202°
2026-04-17 12:43 38.49904 -9.14112 17771 ft 364 kts 202°
2026-04-17 12:44 38.47577 -9.15350 18432 ft 367 kts 202°
2026-04-17 12:44 38.45199 -9.16565 18979 ft 370 kts 196°
2026-04-17 12:44 38.42623 -9.16957 19525 ft 373 kts 176°
2026-04-17 12:44 38.40098 -9.16284 20120 ft 377 kts 160°
2026-04-17 12:45 38.37778 -9.14684 20667 ft 382 kts 148°
2026-04-17 12:45 38.35570 -9.12762 21186 ft 386 kts 147°
2026-04-17 12:45 38.33357 -9.10772 21692 ft 390 kts 147°
2026-04-17 12:45 38.31122 -9.08758 22189 ft 394 kts 147°
2026-04-17 12:46 38.28894 -9.06766 22660 ft 398 kts 147°
2026-04-17 12:46 38.26601 -9.04736 23156 ft 401 kts 147°
2026-04-17 12:46 38.24289 -9.02704 23649 ft 404 kts 147°
2026-04-17 12:46 38.21980 -9.00684 24081 ft 407 kts 147°
2026-04-17 12:47 38.19635 -8.98637 24612 ft 406 kts 148°
2026-04-17 12:47 38.17309 -8.96607 25252 ft 402 kts 148°
2026-04-17 12:47 38.15028 -8.94619 25860 ft 399 kts 148°
2026-04-17 12:47 38.12737 -8.92623 26390 ft 399 kts 148°
2026-04-17 12:48 38.10452 -8.90635 26909 ft 398 kts 148°
2026-04-17 12:48 38.08163 -8.88646 27470 ft 397 kts 148°
2026-04-17 12:48 38.05839 -8.86861 28035 ft 392 kts 156°
2026-04-17 12:48 38.03354 -8.85413 28587 ft 390 kts 159°
2026-04-17 12:49 38.00837 -8.84053 28903 ft 393 kts 160°
2026-04-17 12:49 37.98304 -8.82698 29133 ft 395 kts 159°
2026-04-17 12:49 37.95775 -8.81326 29104 ft 394 kts 159°
2026-04-17 12:50 37.90814 -8.78569 29105 ft 387 kts 159°
2026-04-17 12:50 37.85889 -8.75797 29115 ft 390 kts 158°
2026-04-17 12:51 37.80905 -8.72987 29116 ft 392 kts 158°
2026-04-17 12:51 37.75931 -8.70186 29111 ft 393 kts 158°
2026-04-17 12:52 37.70920 -8.67369 29108 ft 392 kts 158°
2026-04-17 12:52 37.66408 -8.63553 29115 ft 398 kts 131°
2026-04-17 12:53 37.63626 -8.57490 29099 ft 402 kts 120°
2026-04-17 12:53 37.61075 -8.51243 29100 ft 402 kts 120°
2026-04-17 12:54 37.58500 -8.45000 29098 ft 401 kts 121°
2026-04-17 12:54 37.55888 -8.38762 29099 ft 401 kts 121°
2026-04-17 12:55 37.53287 -8.32590 28676 ft 394 kts 121°
2026-04-17 12:55 37.52013 -8.29571 28400 ft 387 kts 121°
2026-04-17 12:55 37.50764 -8.26615 28140 ft 381 kts 121°
2026-04-17 12:55 37.49515 -8.23664 27845 ft 375 kts 121°
2026-04-17 12:56 37.48295 -8.20785 27601 ft 370 kts 121°
2026-04-17 12:56 37.47093 -8.17951 27339 ft 365 kts 121°
2026-04-17 12:56 37.45905 -8.15153 27022 ft 362 kts 121°
2026-04-17 12:56 37.44719 -8.12365 26641 ft 361 kts 121°
2026-04-17 12:57 37.43533 -8.09578 26235 ft 361 kts 121°
2026-04-17 12:57 37.42349 -8.06799 25819 ft 361 kts 121°
2026-04-17 12:57 37.41179 -8.04053 25609 ft 360 kts 121°
2026-04-17 12:57 37.39957 -8.01194 25401 ft 379 kts 121°
2026-04-17 12:58 37.38669 -7.98185 25142 ft 400 kts 121°
2026-04-17 12:58 37.37349 -7.95099 24738 ft 405 kts 120°
2026-04-17 12:58 37.36015 -7.91975 24309 ft 402 kts 120°
2026-04-17 12:58 37.34691 -7.88874 23881 ft 399 kts 120°
2026-04-17 12:59 37.33392 -7.85837 23405 ft 397 kts 121°
2026-04-17 12:59 37.32081 -7.82774 22912 ft 394 kts 121°
2026-04-17 12:59 37.30791 -7.79769 22463 ft 391 kts 121°
2026-04-17 12:59 37.29498 -7.76758 22022 ft 388 kts 121°
2026-04-17 13:00 37.28220 -7.73784 21593 ft 384 kts 120°
2026-04-17 13:00 37.26966 -7.70870 21178 ft 381 kts 120°
2026-04-17 13:00 37.25700 -7.67930 20754 ft 378 kts 120°
2026-04-17 13:00 37.24463 -7.65061 20347 ft 375 kts 121°
2026-04-17 13:01 37.23221 -7.62185 19934 ft 372 kts 120°
2026-04-17 13:01 37.21986 -7.59326 19512 ft 370 kts 120°
2026-04-17 13:01 37.20775 -7.56523 19110 ft 368 kts 120°
2026-04-17 13:01 37.19547 -7.53685 18701 ft 366 kts 120°
2026-04-17 13:02 37.18353 -7.50925 18295 ft 363 kts 120°
2026-04-17 13:02 37.17141 -7.48128 17837 ft 362 kts 120°
2026-04-17 13:02 37.15941 -7.45361 17389 ft 359 kts 120°
2026-04-17 13:02 37.14764 -7.42650 16988 ft 356 kts 120°
2026-04-17 13:03 37.13732 -7.39826 16564 ft 355 kts 107°
2026-04-17 13:03 37.13382 -7.36767 16224 ft 353 kts 91°
2026-04-17 13:03 37.13664 -7.33739 15874 ft 352 kts 78°
2026-04-17 13:03 37.14253 -7.30763 15502 ft 349 kts 76°
2026-04-17 13:04 37.14857 -7.27849 15117 ft 348 kts 77°
2026-04-17 13:04 37.15445 -7.24913 14733 ft 346 kts 77°
2026-04-17 13:04 37.16014 -7.21970 14353 ft 345 kts 77°
2026-04-17 13:04 37.16572 -7.19042 13957 ft 345 kts 76°
2026-04-17 13:05 37.17124 -7.16133 13540 ft 346 kts 76°
2026-04-17 13:05 37.17679 -7.13206 13124 ft 344 kts 77°
2026-04-17 13:05 37.18234 -7.10275 12727 ft 343 kts 77°
2026-04-17 13:05 37.18780 -7.07394 12530 ft 334 kts 77°
2026-04-17 13:06 37.19309 -7.04594 12386 ft 326 kts 77°
2026-04-17 13:06 37.19820 -7.01890 12245 ft 317 kts 77°
2026-04-17 13:06 37.20322 -6.99223 12106 ft 309 kts 77°
2026-04-17 13:06 37.20813 -6.96619 11827 ft 307 kts 77°
2026-04-17 13:07 37.21300 -6.94028 11530 ft 306 kts 77°
2026-04-17 13:07 37.21793 -6.91403 11228 ft 305 kts 77°
2026-04-17 13:07 37.22272 -6.88847 10933 ft 304 kts 77°
2026-04-17 13:07 37.22757 -6.86257 10629 ft 303 kts 77°
2026-04-17 13:08 37.23238 -6.83688 10320 ft 303 kts 78°
2026-04-17 13:08 37.23721 -6.81107 10017 ft 302 kts 77°
2026-04-17 13:08 37.24195 -6.78564 9690 ft 302 kts 77°
2026-04-17 13:08 37.24674 -6.76002 9376 ft 301 kts 78°
2026-04-17 13:09 37.25149 -6.73442 9048 ft 300 kts 77°
2026-04-17 13:09 37.25622 -6.70893 8757 ft 297 kts 77°
2026-04-17 13:09 37.26088 -6.68373 8462 ft 296 kts 78°
2026-04-17 13:09 37.26549 -6.65889 8171 ft 294 kts 78°
2026-04-17 13:10 37.27010 -6.63395 7863 ft 293 kts 78°
2026-04-17 13:10 37.27470 -6.60897 7572 ft 290 kts 78°
2026-04-17 13:10 37.27915 -6.58483 7269 ft 281 kts 78°
2026-04-17 13:10 37.28355 -6.56101 7001 ft 276 kts 78°
2026-04-17 13:11 37.28783 -6.53777 6760 ft 274 kts 78°
2026-04-17 13:11 37.29207 -6.51460 6484 ft 274 kts 78°
2026-04-17 13:11 37.29639 -6.49112 6174 ft 274 kts 78°
2026-04-17 13:11 37.30068 -6.46769 5841 ft 275 kts 79°
2026-04-17 13:12 37.30493 -6.44444 5522 ft 273 kts 79°
2026-04-17 13:12 37.31341 -6.39802 4972 ft 272 kts 79°
2026-04-17 13:12 37.31760 -6.37508 4662 ft 273 kts 79°
2026-04-17 13:13 37.32187 -6.35168 4352 ft 273 kts 78°
2026-04-17 13:13 37.32612 -6.32843 4137 ft 270 kts 79°
2026-04-17 13:13 37.33020 -6.30597 4033 ft 263 kts 78°
2026-04-17 13:13 37.33424 -6.28373 3889 ft 257 kts 78°
2026-04-17 13:14 37.33808 -6.26224 3783 ft 251 kts 79°
2026-04-17 13:14 37.34219 -6.24123 3677 ft 245 kts 72°
2026-04-17 13:14 37.34819 -6.22150 3568 ft 238 kts 63°
2026-04-17 13:14 37.35825 -6.20517 3423 ft 236 kts 50°
2026-04-17 13:15 37.36888 -6.18980 3292 ft 232 kts 50°
2026-04-17 13:15 37.37968 -6.17455 3023 ft 232 kts 50°
2026-04-17 13:15 37.39008 -6.15998 3021 ft 213 kts 49°
2026-04-17 13:15 37.39977 -6.14677 2991 ft 198 kts 48°
2026-04-17 13:16 37.40873 -6.13434 2982 ft 187 kts 49°
2026-04-17 13:16 37.41614 -6.12143 2979 ft 179 kts 75°
2026-04-17 13:16 37.41665 -6.10642 2991 ft 176 kts 92°
2026-04-17 13:16 37.41707 -6.09044 2784 ft 185 kts 88°
2026-04-17 13:17 37.41724 -6.07424 2550 ft 187 kts 91°
2026-04-17 13:17 37.41735 -6.05810 2325 ft 182 kts 89°
2026-04-17 13:17 37.41751 -6.04241 2092 ft 174 kts 89°
2026-04-17 13:17 37.41757 -6.02794 1849 ft 161 kts 90°
2026-04-17 13:18 37.41759 -6.01479 1738 ft 142 kts 90°
2026-04-17 13:18 37.41756 -6.00240 1492 ft 141 kts 91°
2026-04-17 13:18 37.41761 -5.99016 1290 ft 142 kts 90°
2026-04-17 13:18 37.41766 -5.97746 1163 ft 149 kts 89°
2026-04-17 13:19 37.41781 -5.96440 912 ft 152 kts 89°
2026-04-17 13:19 37.41776 -5.95122 687 ft 150 kts 90°
2026-04-17 13:19 37.41782 -5.93805 546 ft 150 kts 88°
2026-04-17 13:19 37.41789 -5.92509 352 ft 149 kts 89°
2026-04-17 13:20 37.41789 -5.91212 147 ft 147 kts 90°
2026-04-17 13:20 37.41793 -5.90013 98 ft 117 kts 89°
2026-04-17 13:20 37.41795 -5.89257 99 ft 54 kts 90°
2026-04-17 13:20 37.41795 -5.88916 103 ft 23 kts 90°
2026-04-17 13:21 37.41818 -5.88787 103 ft 15 kts 36°
2026-04-17 13:21 37.41915 -5.88760 102 ft 14 kts
2026-04-17 13:21 37.41981 -5.88778 101 ft 10 kts 294°
2026-04-17 13:21 37.41984 -5.88863 101 ft 10 kts 270°
2026-04-17 13:22 37.41984 -5.88946 101 ft 10 kts 269°
2026-04-17 13:22 37.41983 -5.89041 100 ft 12 kts 269°
2026-04-17 13:22 37.41983 -5.89163 99 ft 16 kts 270°
2026-04-17 13:22 37.41983 -5.89296 98 ft 15 kts 270°
2026-04-17 13:23 37.42022 -5.89408 99 ft 14 kts 314°
2026-04-17 13:23 37.42088 -5.89492 97 ft 12 kts 314°
2026-04-17 13:23 37.42147 -5.89569 97 ft 12 kts 314°
2026-04-17 13:23 37.42207 -5.89646 94 ft 12 kts 314°
2026-04-17 13:24 37.42265 -5.89720 93 ft 12 kts 315°
2026-04-17 13:24 37.42334 -5.89699 93 ft 11 kts 44°
2026-04-17 13:24 37.42341 -5.89621 93 ft 11 kts 132°
2026-04-17 13:24 37.42290 -5.89556 96 ft 10 kts 134°
2026-04-17 13:25 37.42288 -5.89513 93 ft 5 kts 47°
2026-04-17 13:25 37.42297 -5.89480 93 ft 4 kts 97°
2026-04-17 13:25 37.42297 -5.89474 93 ft 0 kts 97°